SPIRALE A 1 33751U 09008C 25021.58054786 .00003325 00000-0 21185-2 0 9991 2 33751 2.1194 57.6703 5568664 277.6738 25.5106 4.60857356238462 SPIRALE B 1 33752U 09008D 25021.88060587 .00008355 00000-0 16908-2 0 9996 2 33752 2.0876 314.8218 6737376 118.2084 324.5418 2.99524760152587 SAPPHIRE 1 39088U 13009C 25021.48223722 .00000455 00000-0 17482-3 0 9990 2 39088 98.4086 208.5968 0010829 338.1490 21.9233 14.34961267623184